Terminal Aerodrome Forecast
Issued by NWS Charleston, WV

Current Version | Previous Version | Text Only | Print | Product List | Glossary Off
Versions: 1 2 3 4 5 6 7 8 9 10 11 12 13 14 15 16 17 18

000
FTUS41 KRLX 271606 AAA
TAFBKW
TAF AMD
KBKW 271606Z 2716/2812 02004KT P6SM SCT025
     FM271700 02005KT P6SM BKN030
     FM271900 03006KT P6SM SCT035
     FM272100 03006KT P6SM SCT045
     FM280100 00000KT P6SM SKC=

USA.gov is the U.S. government's official web portal to all federal, state and local government web resources and services.